Regional Weather Roundup
Issued by NWS Cleveland, OH

Home | Current Version | Previous Version | Graphics & Text | Print | Product List | Glossary On
Versions: 1 2 3 4 5 6 7 8 9 10 11 12 13 14 15 16 17 18 19 20 21 22 23 24 25 26 27 28 29 30 31 32 33 34 35 36 37 38 39 40 41 42 43 44 45 46 47 48 49 50
000
ASUS41 KCLE 190800
RWRCLE
OHIO REGIONAL WEATHER ROUNDUP
NATIONAL WEATHER SERVICE WILMINGTON, OH
400 AM EDT SUN APR 19 2015

NOTE: "FAIR" INDICATES FEW OR NO CLOUDS BELOW 12,000 FEET WITH NO
SIGNIFICANT WEATHER AND/OR OBSTRUCTIONS TO VISIBILITY.

OHZ001>008-015>018-024>027-034-035-043-044-190900-
   NORTHWEST OHIO

CITY           SKY/WX    TMP DP  RH WIND       PRES   REMARKS
DEFIANCE       CLOUDY    50  35  56 NE9       30.01F
FINDLAY        CLOUDY    51  36  56 NE14      29.99F
TOLEDO EXPRESS PTCLDY    49  33  54 E14       30.04F
TOLEDO EXEC    MOCLDY    48  35  60 NE13G18   30.06F
LIMA           CLOUDY    51  38  60 E10       29.98F
$$

OHZ009>014-019>023-028>033-038-089-190900-
   NORTHEAST OHIO

CITY           SKY/WX    TMP DP  RH WIND       PRES   REMARKS
CLE-HOPKINS    MOCLDY    49  28  44 E8        30.07F
CLE-LAKEFRONT  PTCLDY    49  39  68 NE8       30.05F
CUY CO. ARPT   NOT AVBL
LORAIN-ELYRIA  MOCLDY    46  34  62 E8        30.04F
ASHTABULA      PTCLDY    46  24  42 E7        30.10F
AKRON-CANTON   CLOUDY    52  29  41 E13       30.04S
WOOSTER        NOT AVBL
MANSFIELD      CLOUDY    53  33  46 E9        30.02F
YOUNGSTOWN     PTCLDY    49  26  41 E12       30.06S
$$

OHZ042-051>053-060>062-070>072-077>081-190900-
  SOUTHWEST OHIO

CITY           SKY/WX    TMP DP  RH WIND       PRES   REMARKS
CINC-COVINGTON CLOUDY    65  44  46 E14       29.89F
CINC-LUNKEN    MOCLDY    62  47  57 N7        29.90F
HAMILTON       MOCLDY    60  49  66 E7        29.92F
DAYTON         NOT AVBL
WRIGHT-PAT AFB PTCLDY    56  41  57 NE6       29.95S
DAYTON GENERAL PTCLDY    59  45  59 E10       29.92F
WILMINGTON     PTCLDY    56  46  69 NE10      29.93F
$$

OHZ036-037-039>041-045>050-054>059-063>069-073>076-082>088-190900-
  CENTRAL AND SOUTHEAST OHIO

CITY           SKY/WX    TMP DP  RH WIND       PRES   REMARKS
COLUMBUS       CLOUDY    59  39  47 E8        29.96F
OSU AIRPORT    MOCLDY    56  39  53 NE7       29.97F
BOLTON FIELD   NOT AVBL
RICKENBACK AFB NOT AVBL
NEWARK         CLOUDY    57  39  51 E3        29.98F
MARION         CLOUDY    49  38  65 E7        29.99F
LANCASTER      MOCLDY    51  44  77 CALM      29.97F
ZANESVILLE     MOCLDY    57  39  51 NE3       29.98F
NEW PHILLY     CLOUDY    57  39  51 CALM      30.03F
$$


USA.gov is the U.S. government's official web portal to all federal, state and local government web resources and services.